Home   Weather   Ahmedabad   Past weeks

Flag for India Past Weather in Ahmedabad, Gujarat, India — Yesterday and Last 2 Weeks

Now
84 °F

Light rain. Broken clouds.


Feels Like: 94 °F
Forecast: 83 / 94 °F
Wind: 3 mph from Northwest

Location: Ahmadabad Airport

Current Time: Oct 1, 2016 at 2:13:18 PM

Latest Report: Oct 1, 2016 at 1:30 PM


Visibility: 2 mi

Pressure: 29.74 "Hg

Humidity: 79%

Dew Point: 77 °F

Location of AhmedabadLocation

Past Weather in Ahmedabad — Graph

°F

Ahmedabad Temperature Yesterday

Maximum temperature yesterday: 93 °F (at 3:00 PM)
Minimum temperature yesterday: 79 °F (at 3:30 AM)
Average temperature yesterday: 85 °F

High & Low Weather Summary for the Past Weeks

 TemperatureHumidityPressure
High97 °F (Sep 17, 4:30 PM)94% (Sep 18, 8:30 PM)29.83 "Hg (Sep 18, 8:30 PM)
Low75 °F (Sep 18, 10:00 PM)41% (Sep 28, 5:00 PM)29.56 "Hg (Sep 17, 4:00 PM)
Average85 °F71%29.71 "Hg
* Reported Sep 16 12:30 PM — Oct 1 1:00 PM, Ahmedabad, Weather by CustomWeather, © 2016

Note: Actual official high and low records may vary slightly from our data, if they occured in-between our weather recording intervals... More about our weather records

Advertising

Ahmedabad Weather History for the Previous 24 Hours

Scroll right to see more
 ConditionsComfort  
Time TempWeatherWind HumidityBarometerVisibility
1:00 PM
Sat, Oct 1
84 °FLight rain. Broken clouds.6 mph74%29.74 "Hg2 mi
12:30 PM84 °FBroken clouds.7 mph74%29.77 "Hg3 mi
12:00 PM84 °FBroken clouds.6 mph74%29.77 "Hg3 mi
11:30 AM84 °FBroken clouds.8 mph74%29.77 "Hg3 mi
11:00 AM84 °FBroken clouds.8 mph74%29.77 "Hg3 mi
10:30 AM84 °FBroken clouds.8 mph74%29.77 "Hg2 mi
10:00 AM82 °FBroken clouds.6 mph79%29.77 "Hg2 mi
9:30 AM81 °FBroken clouds.9 mph79%29.77 "Hg2 mi
9:00 AM81 °FBroken clouds.7 mph79%29.77 "Hg2 mi
8:00 AM81 °FBroken clouds.6 mph74%29.74 "Hg2 mi
7:30 AM81 °FBroken clouds.6 mph74%29.74 "Hg2 mi
7:00 AM79 °FPartly cloudy.7 mph79%29.74 "Hg2 mi
6:30 AM79 °FPartly cloudy.8 mph79%29.71 "Hg2 mi
6:00 AM81 °FPassing clouds.6 mph74%29.71 "Hg2 mi
5:30 AM81 °FHaze.5 mph74%29.71 "Hg2 mi
5:00 AM81 °FHaze.8 mph74%29.71 "Hg2 mi
4:30 AM81 °FHaze.5 mph74%29.71 "Hg2 mi
4:00 AM81 °FHaze.7 mph74%29.68 "Hg2 mi
3:30 AM81 °FHaze.8 mph74%29.68 "Hg2 mi
3:00 AM81 °FHaze.6 mph74%29.68 "Hg2 mi
2:30 AM81 °FHaze.7 mph70%29.68 "Hg2 mi
2:00 AM82 °FHaze.7 mph66%29.71 "Hg2 mi
1:30 AM82 °FHaze.6 mph66%29.71 "Hg2 mi
1:00 AM82 °FHaze.8 mph66%29.71 "Hg2 mi
12:30 AM82 °FHaze.8 mph66%29.74 "Hg2 mi
12:00 AM84 °FHaze.7 mph62%29.74 "Hg2 mi
11:30 PM
Fri, Sep 30
84 °FHaze.7 mph62%29.74 "Hg2 mi
11:00 PM84 °FHaze.5 mph62%29.74 "Hg2 mi
10:30 PM86 °FHaze.5 mph55%29.74 "Hg2 mi
10:00 PM86 °FHaze.6 mph55%29.74 "Hg2 mi
9:30 PM86 °FHaze.5 mph55%29.74 "Hg2 mi
9:00 PM86 °FHaze.3 mph59%29.71 "Hg2 mi
8:30 PM86 °FHaze.3 mph59%29.71 "Hg2 mi
8:00 PM88 °FHaze.3 mph55%29.71 "Hg2 mi
7:30 PM88 °FHaze.3 mph59%29.68 "Hg2 mi
7:00 PM88 °FPassing clouds.No wind55%29.68 "Hg2 mi
6:30 PM90 °FPassing clouds.3 mph55%29.65 "Hg2 mi
6:00 PM90 °FPassing clouds.5 mph55%29.65 "Hg2 mi
5:30 PM93 °FPassing clouds.5 mph47%29.65 "Hg3 mi
4:30 PM93 °FScattered clouds.6 mph49%29.65 "Hg4 mi
4:00 PM93 °FScattered clouds.6 mph49%29.65 "Hg4 mi
3:30 PM93 °FScattered clouds.6 mph53%29.68 "Hg4 mi
3:00 PM93 °FScattered clouds.8 mph53%29.68 "Hg4 mi
2:30 PM91 °FScattered clouds.6 mph52%29.71 "Hg4 mi
2:00 PM91 °FScattered clouds.5 mph56%29.71 "Hg4 mi
Weather by CustomWeather, © 2016

See weather overviewHow to use our weather pages